TimePDT,TemperatureF,Dew PointF,Humidity,Sea Level PressureIn,VisibilityMPH,Wind Direction,Wind SpeedMPH,Gust SpeedMPH,PrecipitationIn,Events,Conditions,WindDirDegrees,DateUTC
12:15 AM,44.6,17.6,34,30.22,10.0,West,12.7,-,N/A,,Clear,270,2013-06-14 07:15:00
12:35 AM,42.8,19.4,39,30.22,10.0,WNW,4.6,-,N/A,,Clear,300,2013-06-14 07:35:00
12:55 AM,46.4,17.6,32,30.22,10.0,West,12.7,-,N/A,,Clear,270,2013-06-14 07:55:00
1:15 AM,48.2,17.6,30,30.22,10.0,West,11.5,-,N/A,,Clear,260,2013-06-14 08:15:00
1:35 AM,46.4,17.6,32,30.23,10.0,West,11.5,-,N/A,,Clear,270,2013-06-14 08:35:00
1:55 AM,41.0,17.6,39,30.23,10.0,NW,5.8,-,N/A,,Clear,310,2013-06-14 08:55:00
2:15 AM,41.0,17.6,39,30.22,10.0,West,8.1,-,N/A,,Clear,280,2013-06-14 09:15:00
2:35 AM,41.0,15.8,36,30.22,10.0,West,9.2,-,N/A,,Clear,280,2013-06-14 09:35:00
2:55 AM,42.8,15.8,34,30.22,10.0,West,11.5,-,N/A,,Clear,280,2013-06-14 09:55:00
3:15 AM,41.0,15.8,36,30.22,10.0,West,10.4,-,N/A,,Clear,280,2013-06-14 10:15:00
3:35 AM,42.8,15.8,34,30.22,10.0,West,12.7,-,N/A,,Clear,280,2013-06-14 10:35:00
3:55 AM,41.0,14.0,33,30.22,10.0,West,11.5,-,N/A,,Clear,270,2013-06-14 10:55:00
4:15 AM,42.8,14.0,31,30.22,10.0,West,15.0,-,N/A,,Clear,270,2013-06-14 11:15:00
4:35 AM,41.0,14.0,33,30.22,10.0,West,12.7,16.1,N/A,,Clear,270,2013-06-14 11:35:00
4:55 AM,41.0,15.8,36,30.22,10.0,West,10.4,-,N/A,,Clear,270,2013-06-14 11:55:00
5:15 AM,42.8,17.6,36,30.22,10.0,West,12.7,-,N/A,,Clear,270,2013-06-14 12:15:00
5:35 AM,41.0,19.4,42,30.23,10.0,West,12.7,-,N/A,,Clear,280,2013-06-14 12:35:00
5:55 AM,41.0,19.4,42,30.23,10.0,West,10.4,-,N/A,,Clear,280,2013-06-14 12:55:00
6:15 AM,41.0,19.4,42,30.23,10.0,West,9.2,-,N/A,,Clear,280,2013-06-14 13:15:00
6:35 AM,44.6,19.4,37,30.23,10.0,WNW,11.5,-,N/A,,Clear,290,2013-06-14 13:35:00
6:55 AM,46.4,21.2,37,30.23,10.0,West,11.5,-,N/A,,Clear,280,2013-06-14 13:55:00
7:15 AM,48.2,21.2,34,30.23,10.0,West,12.7,-,N/A,,Clear,280,2013-06-14 14:15:00
7:35 AM,50.0,21.2,32,30.23,10.0,West,12.7,18.4,N/A,,Clear,270,2013-06-14 14:35:00
7:55 AM,51.8,21.2,30,30.23,10.0,WNW,10.4,-,N/A,,Clear,290,2013-06-14 14:55:00
8:15 AM,51.8,21.2,30,30.23,10.0,West,12.7,16.1,N/A,,Clear,280,2013-06-14 15:15:00
8:35 AM,53.6,21.2,28,30.22,10.0,West,9.2,-,N/A,,Clear,260,2013-06-14 15:35:00
8:55 AM,55.4,21.2,26,30.22,10.0,West,6.9,-,N/A,,Clear,270,2013-06-14 15:55:00
9:15 AM,57.2,21.2,25,30.22,10.0,Calm,Calm,-,N/A,,Clear,0,2013-06-14 16:15:00
9:35 AM,57.2,21.2,25,30.21,10.0,West,8.1,-,N/A,,Clear,280,2013-06-14 16:35:00
9:55 AM,59.0,19.4,22,30.20,10.0,SE,5.8,-,N/A,,Clear,140,2013-06-14 16:55:00
10:15 AM,59.0,19.4,22,30.20,10.0,WSW,4.6,-,N/A,,Clear,240,2013-06-14 17:15:00
10:35 AM,60.8,19.4,20,30.19,10.0,Calm,Calm,-,N/A,,Clear,0,2013-06-14 17:35:00
10:55 AM,64.4,19.4,18,30.19,10.0,East,8.1,-,N/A,,Clear,100,2013-06-14 17:55:00
11:15 AM,64.4,17.6,16,30.19,10.0,Calm,Calm,-,N/A,,Clear,0,2013-06-14 18:15:00
11:35 AM,64.4,17.6,16,30.18,10.0,South,3.5,-,N/A,,Clear,170,2013-06-14 18:35:00
11:55 AM,66.2,17.6,15,30.17,10.0,SSE,6.9,-,N/A,,Clear,160,2013-06-14 18:55:00
12:15 PM,68.0,15.8,13,30.17,10.0,ESE,4.6,-,N/A,,Clear,120,2013-06-14 19:15:00
12:35 PM,68.0,15.8,13,30.16,10.0,SSE,8.1,18.4,N/A,,Clear,160,2013-06-14 19:35:00
12:55 PM,69.8,15.8,13,30.16,10.0,East,10.4,-,N/A,,Clear,100,2013-06-14 19:55:00
1:15 PM,71.6,15.8,12,30.15,10.0,East,3.5,-,N/A,,Clear,80,2013-06-14 20:15:00
1:35 PM,71.6,17.6,13,30.14,10.0,ESE,10.4,-,N/A,,Clear,120,2013-06-14 20:35:00
1:55 PM,73.4,17.6,12,30.13,10.0,ESE,12.7,17.3,N/A,,Clear,110,2013-06-14 20:55:00
2:15 PM,75.2,17.6,11,30.12,10.0,ESE,9.2,17.3,N/A,,Clear,120,2013-06-14 21:15:00
2:35 PM,73.4,17.6,12,30.12,10.0,SE,9.2,-,N/A,,Clear,140,2013-06-14 21:35:00
2:55 PM,75.2,17.6,11,30.11,10.0,SSE,9.2,-,N/A,,Clear,150,2013-06-14 21:55:00
3:15 PM,75.2,15.8,11,30.10,10.0,SE,8.1,-,N/A,,Clear,130,2013-06-14 22:15:00
3:35 PM,75.2,17.6,11,30.10,10.0,South,3.5,-,N/A,,Clear,190,2013-06-14 22:35:00
3:55 PM,77.0,17.6,11,30.10,10.0,SW,6.9,-,N/A,,Clear,230,2013-06-14 22:55:00
4:15 PM,75.2,17.6,11,30.09,10.0,West,10.4,20.7,N/A,,Clear,280,2013-06-14 23:15:00
4:35 PM,75.2,19.4,12,30.09,10.0,WNW,16.1,27.6,N/A,,Clear,290,2013-06-14 23:35:00
4:55 PM,73.4,19.4,13,30.08,10.0,WNW,12.7,27.6,N/A,,Clear,300,2013-06-14 23:55:00
5:15 PM,73.4,19.4,13,30.08,10.0,NW,17.3,26.5,N/A,,Clear,320,2013-06-15 00:15:00
5:35 PM,71.6,19.4,14,30.08,10.0,NW,17.3,28.8,N/A,,Clear,310,2013-06-15 00:35:00
5:55 PM,73.4,21.2,14,30.07,10.0,WNW,11.5,24.2,N/A,,Clear,300,2013-06-15 00:55:00
6:15 PM,71.6,21.2,15,30.07,10.0,NNW,15.0,25.3,N/A,,Clear,340,2013-06-15 01:15:00
6:35 PM,71.6,23.0,16,30.07,10.0,NW,19.6,24.2,N/A,,Clear,320,2013-06-15 01:35:00
6:55 PM,69.8,23.0,17,30.08,10.0,WNW,16.1,24.2,N/A,,Clear,300,2013-06-15 01:55:00
7:15 PM,68.0,21.2,17,30.08,10.0,NNW,9.2,25.3,N/A,,Clear,340,2013-06-15 02:15:00
7:35 PM,66.2,23.0,19,30.09,10.0,NW,8.1,-,N/A,,Clear,310,2013-06-15 02:35:00
7:55 PM,64.4,23.0,21,30.09,10.0,NW,8.1,-,N/A,,Clear,320,2013-06-15 02:55:00
8:15 PM,62.6,23.0,22,30.09,10.0,NW,6.9,-,N/A,,Clear,320,2013-06-15 03:15:00
8:35 PM,60.8,23.0,23,30.09,10.0,North,3.5,-,N/A,,Clear,360,2013-06-15 03:35:00
8:55 PM,60.8,23.0,23,30.10,10.0,WNW,8.1,-,N/A,,Clear,300,2013-06-15 03:55:00
9:15 PM,59.0,23.0,25,30.11,10.0,NW,4.6,-,N/A,,Clear,310,2013-06-15 04:15:00
9:35 PM,60.8,23.0,23,30.11,10.0,West,3.5,-,N/A,,Clear,260,2013-06-15 04:35:00
9:55 PM,59.0,21.2,23,30.12,10.0,West,8.1,18.4,N/A,,Clear,280,2013-06-15 04:55:00
10:15 PM,59.0,21.2,23,30.12,10.0,West,11.5,20.7,N/A,,Clear,280,2013-06-15 05:15:00
10:35 PM,59.0,21.2,23,30.13,10.0,West,6.9,-,N/A,,Clear,270,2013-06-15 05:35:00
10:55 PM,57.2,21.2,25,30.13,10.0,West,8.1,-,N/A,,Clear,280,2013-06-15 05:55:00
11:15 PM,57.2,21.2,25,30.12,10.0,West,10.4,19.6,N/A,,Clear,270,2013-06-15 06:15:00
11:35 PM,55.4,21.2,26,30.13,10.0,West,6.9,-,N/A,,Clear,280,2013-06-15 06:35:00
11:55 PM,55.4,21.2,26,30.13,10.0,West,6.9,-,N/A,,Clear,280,2013-06-15 06:55:00